Tracking 23731 objects as of 26-Sep-2021
HD Live streaming from Space Station
objects crossing your sky now

GALAXY 10R

Track GALAXY 10R now!
GALAXY 10R is classified as:


NORAD ID: 26056
Int'l Code: 2000-002A
Perigee: 35,944.2 km
Apogee: 35,997.5 km
Inclination: 9.5 °
Period: 1,445.2 minutes
Semi major axis: 42341 km
RCS: 16.229 m2 (large)
Launch date: January 25, 2000
Source: United States (US)
Launch site: FRENCH GUIANA (FRGUI)

Digital and voice communications; 24 C-band< 24 Ku-band; North America.
aabbcc
Your satellite tracking list
Your tracking list is empty




NASA's NSSDC Master Catalog

Two Line Element Set (TLE):
1 26056U 00002A   21268.63049990  .00000003  00000-0  00000-0 0  9993
2 26056   9.4614  42.6207 0006295  96.5935 110.9786  0.99643435 79130
Source of the keplerian elements: AFSPC